BAW248 SBGL-EGLL

Flight info

Callsign BAW248
Flight time N/A
Altitude 35000
Route IMBAP UZ1 ESNIN UN866 DEKON/N0494F360 UN866 AMDOL/N0489F370 UN866 TENPA N866 GOMER/N0479F380 N981 BIMBO/N0431F240 UN729 AGADO/N0487F400 DCT KORUL DCT FEJAC DCT JSY/N0466F340 DCT REVTU UP87 ROXOG
Aircraft A35K/H-SDE2E3GHIJ3J4J5LM1ORWXY/LB1D1

Departure

Time N/A
Airport Rio Galeão – Tom Jobim International Airport (SBGL)

Arrival

Time 2026-05-05 16:59
Airport London Heathrow Airport (EGLL)
Time Latitude Longitude Altitude Speed Heading
2026-05-05 16:35 50.06095 -1.66188 24330 ft 417 kts 17°
2026-05-05 16:35 50.08812 -1.64891 23671 ft 402 kts 17°
2026-05-05 16:35 50.11467 -1.63614 22924 ft 396 kts 17°
2026-05-05 16:36 50.14070 -1.62358 22344 ft 390 kts 17°
2026-05-05 16:36 50.16660 -1.61103 22035 ft 388 kts 17°
2026-05-05 16:36 50.19247 -1.59847 21779 ft 389 kts 17°
2026-05-05 16:36 50.21823 -1.58594 21515 ft 386 kts 17°
2026-05-05 16:37 50.24384 -1.57346 21258 ft 384 kts 17°
2026-05-05 16:37 50.26925 -1.56107 20992 ft 382 kts 17°
2026-05-05 16:37 50.29463 -1.54873 20738 ft 381 kts 17°
2026-05-05 16:37 50.31982 -1.53640 20486 ft 379 kts 17°
2026-05-05 16:38 50.34468 -1.52421 20227 ft 378 kts 17°
2026-05-05 16:38 50.36974 -1.51192 19845 ft 376 kts 17°
2026-05-05 16:38 50.39460 -1.49972 19452 ft 374 kts 18°
2026-05-05 16:38 50.41890 -1.48778 19067 ft 371 kts 18°
2026-05-05 16:39 50.44353 -1.47567 18683 ft 370 kts 18°
2026-05-05 16:39 50.46808 -1.46359 18302 ft 368 kts 18°
2026-05-05 16:39 50.49246 -1.45157 17877 ft 366 kts 18°
2026-05-05 16:39 50.51665 -1.43964 17467 ft 363 kts 18°
2026-05-05 16:40 50.54032 -1.42611 17028 ft 361 kts 25°
2026-05-05 16:40 50.56233 -1.40857 16623 ft 358 kts 28°
2026-05-05 16:40 50.58412 -1.38984 16207 ft 356 kts 29°
2026-05-05 16:40 50.60601 -1.37092 15785 ft 353 kts 29°
2026-05-05 16:41 50.62722 -1.35263 15402 ft 351 kts 29°
2026-05-05 16:41 50.64852 -1.33426 14994 ft 349 kts 29°
2026-05-05 16:41 50.66980 -1.31592 14618 ft 346 kts 29°
2026-05-05 16:41 50.69081 -1.29780 14223 ft 343 kts 29°
2026-05-05 16:42 50.71188 -1.27962 13828 ft 337 kts 29°
2026-05-05 16:42 50.73191 -1.26232 13420 ft 331 kts 29°
2026-05-05 16:42 50.75195 -1.24498 12981 ft 325 kts 29°
2026-05-05 16:42 50.77138 -1.22804 12775 ft 313 kts 30°
2026-05-05 16:43 50.78947 -1.20985 12580 ft 301 kts 34°
2026-05-05 16:43 50.80650 -1.19168 12400 ft 290 kts 34°
2026-05-05 16:43 50.82293 -1.17426 12188 ft 280 kts 33°
2026-05-05 16:43 50.83889 -1.15751 12015 ft 270 kts 33°
2026-05-05 16:44 50.85433 -1.14140 11817 ft 261 kts 33°
2026-05-05 16:44 50.86902 -1.12613 11640 ft 252 kts 33°
2026-05-05 16:44 50.88124 -1.11344 11478 ft 245 kts 32°
2026-05-05 16:44 50.89485 -1.09931 11341 ft 241 kts 32°
2026-05-05 16:45 50.90884 -1.08481 11170 ft 240 kts 32°
2026-05-05 16:45 50.92259 -1.07057 11007 ft 241 kts 32°
2026-05-05 16:45 50.93676 -1.05588 10832 ft 242 kts 32°
2026-05-05 16:45 50.95075 -1.04136 10666 ft 240 kts 32°
2026-05-05 16:46 50.96484 -1.02673 10484 ft 240 kts 32°
2026-05-05 16:46 50.97866 -1.01237 10321 ft 240 kts 32°
2026-05-05 16:46 50.99259 -0.99787 10145 ft 239 kts 31°
2026-05-05 16:46 51.00592 -0.98212 10046 ft 239 kts 40°
2026-05-05 16:47 51.01763 -0.96309 10095 ft 241 kts 46°
2026-05-05 16:47 51.02880 -0.94326 10266 ft 242 kts 46°
2026-05-05 16:47 51.03996 -0.92333 10143 ft 241 kts 47°
2026-05-05 16:47 51.05109 -0.90347 9878 ft 240 kts 47°
2026-05-05 16:48 51.06218 -0.88368 9567 ft 239 kts 46°
2026-05-05 16:48 51.07331 -0.86383 9253 ft 238 kts 46°
2026-05-05 16:48 51.08424 -0.84433 8939 ft 237 kts 47°
2026-05-05 16:48 51.09519 -0.82478 8617 ft 235 kts 46°
2026-05-05 16:49 51.10604 -0.80540 8312 ft 233 kts 46°
2026-05-05 16:49 51.11679 -0.78622 8004 ft 232 kts 46°
2026-05-05 16:49 51.12740 -0.76724 7753 ft 231 kts 46°
2026-05-05 16:49 51.13816 -0.74857 7830 ft 231 kts 42°
2026-05-05 16:50 51.15096 -0.73339 7921 ft 229 kts 24°
2026-05-05 16:50 51.16643 -0.72886 7949 ft 227 kts 357°
2026-05-05 16:50 51.18202 -0.73159 7945 ft 225 kts 351°
2026-05-05 16:50 51.19757 -0.73550 7944 ft 227 kts 351°
2026-05-05 16:51 51.21315 -0.73955 7945 ft 228 kts 351°
2026-05-05 16:51 51.22880 -0.74361 7946 ft 227 kts 351°
2026-05-05 16:51 51.24440 -0.74767 7929 ft 227 kts 351°
2026-05-05 16:51 51.25996 -0.75171 7945 ft 226 kts 351°
2026-05-05 16:52 51.27550 -0.75574 7938 ft 226 kts 351°
2026-05-05 16:52 51.29110 -0.75978 7891 ft 225 kts 351°
2026-05-05 16:52 51.30634 -0.76375 7792 ft 224 kts 351°
2026-05-05 16:52 51.32179 -0.76779 7430 ft 223 kts 351°
2026-05-05 16:53 51.33711 -0.77180 6942 ft 222 kts 351°
2026-05-05 16:53 51.35237 -0.77582 6448 ft 222 kts 351°
2026-05-05 16:53 51.36738 -0.77981 5945 ft 221 kts 351°
2026-05-05 16:53 51.38264 -0.78400 5416 ft 219 kts 351°
2026-05-05 16:54 51.39743 -0.78821 4935 ft 217 kts 351°
2026-05-05 16:54 51.41225 -0.79255 4402 ft 216 kts 351°
2026-05-05 16:54 51.42700 -0.79695 4055 ft 216 kts 351°
2026-05-05 16:54 51.44187 -0.80013 3984 ft 216 kts
2026-05-05 16:55 51.45598 -0.79296 4075 ft 215 kts 34°
2026-05-05 16:55 51.46623 -0.77563 4488 ft 216 kts 51°
2026-05-05 16:55 51.47382 -0.75529 4517 ft 208 kts 65°
2026-05-05 16:55 51.47698 -0.73303 4186 ft 206 kts 84°
2026-05-05 16:56 51.47687 -0.71001 3787 ft 206 kts 90°
2026-05-05 16:56 51.47664 -0.68704 3388 ft 206 kts 87°
2026-05-05 16:56 51.47678 -0.66419 2987 ft 203 kts 87°
2026-05-05 16:56 51.47693 -0.64189 2622 ft 195 kts 87°
2026-05-05 16:57 51.47701 -0.62116 2376 ft 179 kts 87°
2026-05-05 16:57 51.47725 -0.60118 1877 ft 178 kts 86°
2026-05-05 16:57 51.47763 -0.58167 1519 ft 171 kts 85°
2026-05-05 16:57 51.47794 -0.56303 1200 ft 163 kts 86°
2026-05-05 16:58 51.47766 -0.54539 861 ft 154 kts 90°
2026-05-05 16:58 51.47715 -0.52867 626 ft 146 kts 86°
2026-05-05 16:58 51.47735 -0.51274 420 ft 141 kts 86°
2026-05-05 16:58 51.47744 -0.49710 269 ft 140 kts 87°
2026-05-05 16:59 51.47757 -0.48148 119 ft 143 kts 86°
2026-05-05 16:59 51.47758 -0.47013 98 ft 47 kts 90°
2026-05-05 16:59 51.47756 -0.46886 98 ft 0 kts 91°
2026-05-05 17:00 51.47755 -0.46779 98 ft 13 kts 89°
2026-05-05 17:00 51.47756 -0.46612 98 ft 17 kts 90°
2026-05-05 17:00 51.47759 -0.46399 97 ft 21 kts 89°
2026-05-05 17:00 51.47715 -0.46164 96 ft 24 kts 132°
2026-05-05 17:01 51.47664 -0.46093 96 ft 0 kts 143°
2026-05-05 17:01 51.47656 -0.46084 96 ft 3 kts 143°
2026-05-05 17:01 51.47633 -0.46067 96 ft 4 kts 166°
2026-05-05 17:01 51.47616 -0.46075 95 ft 2 kts 216°
2026-05-05 17:02 51.47602 -0.46117 97 ft 8 kts 252°
2026-05-05 17:02 51.47594 -0.46241 95 ft 14 kts 269°
2026-05-05 17:02 51.47593 -0.46438 95 ft 21 kts 269°
2026-05-05 17:02 51.47593 -0.46701 95 ft 26 kts 270°
2026-05-05 17:03 51.47588 -0.47017 95 ft 30 kts 269°
2026-05-05 17:03 51.47581 -0.47266 95 ft 16 kts 268°
2026-05-05 17:03 51.47580 -0.47484 96 ft 22 kts 270°
2026-05-05 17:03 51.47579 -0.47748 95 ft 15 kts 270°
2026-05-05 17:04 51.47532 -0.47864 96 ft 15 kts 192°
2026-05-05 17:04 51.47483 -0.47868 96 ft 4 kts 183°
2026-05-05 17:04 51.47429 -0.47872 95 ft 9 kts 184°
2026-05-05 17:04 51.47402 -0.47936 94 ft 10 kts 255°
2026-05-05 17:05 51.47398 -0.48001 96 ft 5 kts 265°
2026-05-05 17:05 51.47398 -0.48020 95 ft 0 kts 269°